Weather WX

World > North America > United States > Ohio

South Solon, Ohio Regional Weather

Lat: 39.74N, Lon: 83.61W
Wx Zone: OHZ054
Warning FLW WEATHER ALERT - FLASH FLOOD WATCH (More Info. Click Here) Warning
Feedback

South Solon, OH Regional Weather

Expires:201906180400;;660227
ASUS41 KCLE 180312
RWRCLE
OHIO REGIONAL WEATHER ROUNDUP
NATIONAL WEATHER SERVICE WILMINGTON, OH
1100 PM EDT MON JUN 17 2019

NOTE: "FAIR" INDICATES FEW OR NO CLOUDS BELOW 12,000 FEET WITH NO
SIGNIFICANT WEATHER AND/OR OBSTRUCTIONS TO VISIBILITY.


OHZ036-037-039>041-045>050-054>059-063>069-073>076-082>088-180400-
  CENTRAL AND SOUTHEAST OHIO
  
CITY           SKY/WX    TMP DP  RH WIND       PRES   REMARKS
COLUMBUS       LGT RAIN  69  67  93 E13       29.90F                  
OSU AIRPORT    LGT RAIN  70  69  97 N5        29.92F                  
BOLTON FIELD   LGT RAIN  69  69  98 E8        29.90F                  
RICKENBACK AFB CLOUDY    68  68 100 E9        29.91F                  
NEWARK         RAIN      72  70  93 S5        29.98R FOG              
MARION         LGT RAIN  68  66  93 NE7       29.96F FOG              
LANCASTER      HVY RAIN  68  66  93 E13       29.92F FOG              
ZANESVILLE     LGT RAIN  71  69  93 CALM      29.98R                  
NEW PHILLY     LGT RAIN  71  68  90 CALM      29.98R                  
$$
  

SKY/WX - Weather  TMP - Temperature  DP - Dew Point  RH - Relative Humidity
WIND - Wind Direction/Speed PRES - Barometric Pressure VSB - Visibility
WCI - Wind Chill Index E13G22 Wind - East Wind 13 mph/Gusts of 22 mph